Regional Weather Roundup
Issued by NWS

Home | Current Version | Previous Version | Text Only | Print | Product List | Glossary Off
Versions: 1 2 3 4 5 6 7 8 9 10 11 12 13 14 15 16 17 18 19 20 21 22 23 24 25 26 27 28 29 30 31 32 33 34 35 36 37 38 39 40 41 42 43 44 45 46 47 48 49 50

000
ASUS43 KMPX 191510
RWRMN
WEATHER ROUNDUP FOR MINNESOTA
NATIONAL WEATHER SERVICE TWIN CITIES/CHANHASSEN MN
900 AM CST FRI DEC 19 2014


NOTE: "FAIR" INDICATES FEW OR NO CLOUDS BELOW 12,000 FEET WITH NO
SIGNIFICANT WEATHER AND/OR OBSTRUCTIONS TO VISIBILITY. N/A MEANS
CURRENT SKY AND/OR WEATHER CONDITIONS ARE NOT AVAILABLE.

MNZ060>063-068>070-191600-
   Twin Cities Metro

CITY           SKY/WX    TMP DP  RH WIND       PRES   REMARKS
TWIN CITIES    CLOUDY    23  18  81 SE7       30.25S WCI  15
ST PAUL        CLOUDY    24  19  81 SE8       30.27S WCI  15
CRYSTAL        CLOUDY    25  20  81 SE5       30.23S WCI  19
BLAINE         CLOUDY    25  21  86 SE7       30.23S WCI  17
LAKEVILLE      PTCLDY    23  21  93 SE6       30.24S FOG     WCI  16
EDEN PRAIRIE   CLOUDY    24  19  81 SE7       30.23S WCI  16
SOUTH ST PAUL  CLOUDY    24  20  82 SE5       30.26S WCI  19
LAKE ELMO      CLOUDY    25  21  86 S5        30.26S WCI  19
$$
MNZ001>005-007-008-013>017-022>024-027-028-191600-
   Northwest Minnesota

CITY           SKY/WX    TMP DP  RH WIND       PRES   REMARKS
BEMIDJI        CLOUDY    19  17  89 SE8       30.12S FOG     WCI   9
HALLOCK        CLOUDY    25  21  86 S13       30.07S FOG     WCI  13
ROSEAU         CLOUDY    23  18  80 SE9       30.10R WCI  13
WARROAD        CLOUDY    21  18  86 SE9       30.11S WCI  11
THIEF RVR FALL CLOUDY    23  21  93 SE9       30.09S WCI  13
CROOKSTON      CLOUDY    25  23  93 S12       30.10S FOG     WCI  14
FOSSTON        CLOUDY    19  19 100 SE9       30.10S FOG     WCI   9
DETROIT LAKES  FOG       23  23 100 SE10      30.11S VSB 1   WCI  12
MOORHEAD       CLOUDY    27  27 100 S14       30.10S FOG     WCI  15
PARK RAPIDS    CLOUDY    20  18  92 SE12      30.12S FOG     WCI   8
MAHNOMEN       CLOUDY    22  21  94 SE9       30.10R FOG     WCI  12
$$
MNZ006-009>011-018-025>026-191600-
   North Central Minnesota

CITY           SKY/WX    TMP DP  RH WIND       PRES   REMARKS
BAUDETTE       CLOUDY    20  17  88 SE7       30.12F WCI  11
FLAG ISLAND    CLOUDY    21  18  86 S14       30.12R WCI   8
INTL FALLS     CLOUDY    21  17  84 SE8       30.16S WCI  11
WASKISH        LGT SNOW  19  18  93 CALM      30.13S
BIG FORK       LGT SNOW  21  18  86 SE6       30.17R WCI  14
LONGVILLE      LGT SNOW  19  18  93 SE3       30.17R
GRAND RAPIDS   CLOUDY    19  18  93 SE8       30.17S WCI   9
CRANE LAKE     CLOUDY    19  18  93 S5        30.22R WCI  13
ORR            FLURRIES  19  16  86 SE5       30.16S WCI  13
COOK           LGT SNOW  19  18  93 SE3       30.19S
WALKER         CLOUDY    19  16  90 SE7       30.14S FOG     WCI  10
$$
MNZ012-019>021-037-191600-
   Northeast Minnesota

CITY           SKY/WX    TMP DP  RH WIND       PRES   REMARKS
DULUTH         FOG       22  18  85 S6        30.21R VSB 1   WCI  14
ELY            CLOUDY    19  18  93 S7        30.20R WCI  10
HIBBING        CLOUDY    20  17  88 SE7       30.20R WCI  11
EVELETH        CLOUDY    21  19  93 SE6       30.21S WCI  14
DULUTH HARBOR  CLOUDY    25  21  86 CALM      30.28R
TWO HARBORS    CLOUDY    25  19  80 W1        30.22S
SILVER BAY     CLOUDY    23  21  93 CALM      30.23R
GRAND MARAIS     N/A     30  23  75 S12       30.28R WCI  20
G MARAIS ARPRT CLOUDY    21  18  86 S5        30.20S WCI  15
$$
MNZ029>031-032-039>041-046>048-054>057-064-191600-
   West Central Minnesota

CITY           SKY/WX    TMP DP  RH WIND       PRES   REMARKS
FERGUS FALLS   CLOUDY    25  25 100 S12       30.14S FOG     WCI  14
WHEATON        CLOUDY    25  23  93 SE12      30.12F FOG     WCI  14
MORRIS         PTCLDY    27  25  93 S12       30.12F FOG     WCI  16
ALEXANDRIA     FOG       24  22  91 SE14      30.13F VSB 1   WCI  12
ELBOW LAKE     CLOUDY    24  23  97 SE12      30.11F FOG     WCI  13
WADENA         FOG       19  19 100 NW9       30.13S VSB 3/4 WCI   9
GLENWOOD       FOG       25  23  93 SE8       30.14F VSB 3/4 WCI  16
APPLETON       CLOUDY    28  27  93 S3        30.14S FOG
BENSON         CLOUDY    27  25  93 S8        30.15S FOG     WCI  18
ORTONVILLE     CLOUDY    27  25  93 S7        30.11F FOG     WCI  19
MADISON        CLEAR     32  30  93 S5        30.14R WCI  27
WILLMAR        CLOUDY    27  25  93 SE7       30.18S FOG     WCI  19
$$
MNZ033>034-036-042>043-049>051-058-059-191600-
   Central Minnesota

CITY           SKY/WX    TMP DP  RH WIND       PRES   REMARKS
ST CLOUD       CLOUDY    23  18  81 SE7       30.20S HAZE    WCI  15
SAUK CENTRE    FOG       22  21  97 SE7       30.17S VSB 1   WCI  13
PAYNESVILLE    FOG       21  21 100 E6        30.18S VSB 1   WCI  13
AITKIN         CLOUDY    23  18  80 SE7       30.18S WCI  15
PINE RIVER     CLOUDY    19  18  93 SE6       30.19S FOG     WCI  11
BRAINERD       CLOUDY    20  17  88 S7        30.19R FOG     WCI  11
STAPLES        CLOUDY    19  18  93 SE6       30.15F FOG     WCI  11
LONG PRAIRIE   CLOUDY    21  19  93 SE6       30.16F FOG     WCI  14
LITTLE FALLS   CLOUDY    21  19  93 SE5       30.19S FOG     WCI  15
LITCHFIELD     CLOUDY    25  25 100 SE5       30.19S FOG     WCI  19
BUFFALO        CLOUDY    23  20  88 SE6       30.23S FOG     WCI  16
MAPLE LAKE     CLOUDY    24  22  93 SE5       30.22S FOG     WCI  18
$$
MNZ037-044-045-052-053-191600-
   East Central Minnesota

CITY           SKY/WX    TMP DP  RH WIND       PRES   REMARKS
PRINCETON      CLOUDY    23  19  86 CALM      30.22R FOG
MORA           MOCLDY    21  18  86 SE3       30.25R
CAMBRIDGE      CLOUDY    25  16  68 SE3       30.22S
RUSH CITY      CLOUDY    22  19  86 SE5       30.25R WCI  16
MOOSE LAKE     LGT SNOW  23  19  86 S5        30.21S WCI  17
HINCKLEY       CLOUDY    23  21  93 CALM      30.24R
CLOQUET        CLOUDY    21  19  93 S3        30.21S FOG
MCGREGOR       CLOUDY    21  19  93 SE8       30.20S WCI  12
$$
MNZ071>073-080-081-089-090-097-098-191600-
   Southwest Minnesota

CITY           SKY/WX    TMP DP  RH WIND       PRES   REMARKS
MONTEVIDEO     CLOUDY    28  28 100 SW6       30.16S FOG     WCI  22
GRANITE FALLS  CLOUDY    28  27  94 SE8       30.18S FOG     WCI  20
CANBY          CLOUDY    29  27  92 S10       30.14S FOG     WCI  20
MARSHALL       CLOUDY    28  25  86 SW12      30.15S WCI  18
REDWOOD FALLS  CLOUDY    28  26  92 S9        30.18R FOG     WCI  19
OLIVIA         CLOUDY    30  28  93 SE7       30.18R FOG     WCI  23
PIPESTONE      CLOUDY    27  27 100 SW7       30.13S FOG     WCI  19
WINDOM         CLOUDY    28  28 100 S7        30.17S FOG     WCI  21
WORTHINGTON    CLOUDY    28  27  93 S10       30.16S WCI  19
JACKSON        CLOUDY    30  28  93 S7        30.18S FOG     WCI  23
TRACY          CLOUDY    30  28  93 S7        30.15R FOG     WCI  23
SLAYTON        CLOUDY    28  28 100 S6        30.15R FOG     WCI  22
$$
MNZ065>067-074>077-082>085-091>093-191600-
   South Central Minnesota

CITY           SKY/WX    TMP DP  RH WIND       PRES   REMARKS
MANKATO        CLOUDY    27  21  80 S9        30.22S WCI  17
NEW ULM        CLOUDY    27  27 100 S8        30.20S WCI  18
ST JAMES       CLOUDY    28  27  93 SE9       30.21S FOG     WCI  20
FAIRMONT       CLOUDY    27  23  86 S10       30.20S WCI  17
GLENCOE        CLOUDY    26  26  97 SE7       30.21S FOG     WCI  19
FARIBAULT      CLOUDY    27  21  80 SE6       30.23S FOG     WCI  20
OWATONNA       PTCLDY    25  21  86 SE8       30.22F FOG     WCI  16
WASECA         CLOUDY    27  23  86 SE6       30.24R FOG     WCI  20
ALBERT LEA     MOCLDY    25  25 100 SE8       30.23S FOG     WCI  16
$$
MNZ078>079-086>088-094>096-191600-
   Southeast Minnesota

CITY           SKY/WX    TMP DP  RH WIND       PRES   REMARKS
ROCHESTER      CLOUDY    23  19  85 S9        30.24S WCI  13
RED WING       CLOUDY    25  19  80 SE6       30.27S WCI  18
STANTON        CLOUDY    26  21  83 SE3       30.23S
DODGE CENTER   CLOUDY    25  21  86 S7        30.23S FOG     WCI  17
WINONA         CLOUDY    28  21  74 SE5       30.30S WCI  23
AUSTIN         CLOUDY    25  21  86 S6        30.24S FOG     WCI  18
PRESTON        CLOUDY    23  19  85 S6        30.26S WCI  16
$$
ABBREVIATIONS USED IN REMARKS
   TC - TEMPERATURES IN CELSIUS
  WCI - WIND CHILL INDEX
   HX - HEAT INDEX
  VSB - VISIBILITY
$$



USA.gov is the U.S. government's official web portal to all federal, state and local government web resources and services.